Zurück zum Katalog

STARLINK-3515

AktivKommunikationVLEO
NORAD 51738·PAYLOAD·🇺🇸 United States

Gestartet Feb 21, 2022 von Cape Canaveral Space Force Station

Loading…

Nächste Überflüge (nächste 24 Stunden)

TLE

AktuellSource: CelesTrak SupGP

Epoche: Sep 15, 2026, 01:40 UTC

1 51738C 22016AA  26258.06993056 -.00010032  00000+0 -32267-3 0  2584
2 51738  53.1578 176.1031 0001093  86.6350 359.7782 15.31701030    18

Verfolge STARLINK-3515 in Echtzeit mit AllMySat

Download on the App Store